{"data":{"norad_id":38342,"epoch":"2026-05-25T04:28:19.027776Z","epoch_age_seconds":73043,"freshness":"FRESH","line1":"1 38342U 12026A   26145.18633134 -.00000176  00000+0  00000+0 0  9991","line2":"2 38342   0.0368  80.4224 0002734 340.9225 157.4090  1.00271548 50188","mean_motion":1.00271548,"eccentricity":0.0002734,"inclination_deg":0.0368,"raan_deg":80.4224,"arg_perigee_deg":340.9225,"mean_anomaly_deg":157.409,"bstar":0,"rev_number":5018,"period_min":1436.1002983618,"perigee_km":35775.133545142,"apogee_km":35798.189256908,"semimajor_km":42164.798401025,"source":"CELESTRAK","updated_at":"2026-05-25T13:38:13.911180Z"}}